Hourly Weather Roundup
Issued by NWS Central Illinois

Home | Current Version | Previous Version | Text Only | Print | Product List | Glossary On
Versions: 1 2 3 4 5 6 7 8 9 10 11 12 13 14 15 16 17 18 19 20 21 22 23 24 25 26 27 28 29 30 31 32 33 34 35 36 37 38 39 40 41 42 43 44 45 46 47 48 49 50
000
NZUS43 KILX 262010
HWRILX

AREA WEATHER ROUNDUP
NATIONAL WEATHER SERVICE, LINCOLN IL
200 PM CST SUN FEB 26 2017


CITY           SKY/WX    TMP DP  RH WIND       PRES   REMARKS
BLOOMINGTON    SUNNY     48  19  31 SW20G32   30.00F
CHAMPAIGN      SUNNY     47  15  27 SW24G33   30.05F
DECATUR        CLOUDY    48  16  27 SW24      30.05F
EFFINGHAM      CLOUDY    46  21  37 S13       30.12F
FLORA          SUNNY     48  21  34 S9        30.12F
GALESBURG      MOSUNNY   50  25  37 SW17G28   29.95F
JACKSONVILLE   PTSUNNY   44  18  34 S17       30.05S
LACON          SUNNY     49  21  34 SW14G21   29.96F
LAWRENCEVILLE  MOSUNNY   49  16  26 SW16      30.13F
LITCHFIELD     CLOUDY    43  21  42 S21       30.08F WCI  34
$$


CITY           SKY/WX    TMP DP  RH WIND       PRES   REMARKS
LINCOLN        SUNNY     49  20  32 S10G21    30.02F
MACOMB         SUNNY     50  24  35 SW16G25   29.99F
MATTOON        CLOUDY    45  19  35 S14G25    30.07F
MT CARMEL AP   PTSUNNY   48  17  29 S13       30.13F
OLNEY-NOBLE AP MOSUNNY   46  21  36 S9        30.13F
PARIS          PTSUNNY   46  20  36 S21       30.10S
PEORIA         SUNNY     50  20  30 SW20      29.98F
PONTIAC        SUNNY     50  20  30 SW22G32   29.99F
RANTOUL        SUNNY     51  18  27 SW29      30.03F
SPRINGFIELD    MOSUNNY   48  16  27 SW18G30   30.05F
TAYLORVILLE    PTSUNNY   44  18  36 S20G26    30.07S
$$

...REGIONAL REPORTS...


CITY           SKY/WX    TMP DP  RH WIND       PRES   REMARKS
CHICAGO O`HARE MOSUNNY   47  20  34 SW24G35   29.92F
KANKAKEE       CLOUDY    49  19  30 SW22G31   29.99F
MOLINE         SUNNY     52  21  29 W20       29.92F
MOUNT STERLING MOSUNNY   47  23  39 S20G25    30.01F
MOUNT VERNON   CLOUDY    49  18  29 S15       30.12F
PITTSFIELD     CLOUDY    46  25  44 SW14      30.05S
QUINCY         CLOUDY    46  26  45 S17G26    30.01F
ROCKFORD       MOSUNNY   47  22  37 W18G25    29.92F
$$


CITY           SKY/WX    TMP DP  RH WIND       PRES   REMARKS
BURLINGTON     MOSUNNY   52  25  35 SW17G28   29.94F
CEDAR RAPIDS   SUNNY     48  27  44 W20G28    29.89F
DES MOINES     MOSUNNY   48  25  40 W17G28    29.92R
KIRKSVILLE     CLOUDY    49  31  49 SW15G28   29.97F
OTTUMWA        CLOUDY    49  25  39 W17       29.91F
ST LOUIS       NOT AVBL
$$


CITY           SKY/WX    TMP DP  RH WIND       PRES   REMARKS
TERRE HAUTE    MOSUNNY   47  13  25 S13G22    30.11F
EVANSVILLE     SUNNY     51  13  21 S8        30.14F
INDIANAPOLIS   PTSUNNY   45  13  27 SW18      30.10F
LAFAYETTE      SUNNY     46  18  32 SW18G28   30.05F
MADISON        MOSUNNY   39  25  57 W10G18    29.85F WCI  32
MILWAUKEE      MOSUNNY   44  23  43 SW20G32   29.87F
$$






USA.gov is the U.S. government's official web portal to all federal, state and local government web resources and services.